Regional Weather Roundup
Issued by NWS

Home | Current Version | Previous Version | Graphics & Text | Print | Product List | Glossary On
Versions: 1 2 3 4 5 6 7 8 9 10 11 12 13 14 15 16 17 18 19 20 21 22 23 24 25 26 27 28 29 30 31 32 33 34 35 36 37 38 39 40 41 42 43 44 45 46 47 48 49 50
760
ASUS45 KBOU 182110
RWRCO

WEATHER ROUNDUP FOR COLORADO
NATIONAL WEATHER SERVICE DENVER/BOULDER CO
200 PM MST SUN FEB 18 2018

NOTE: "FAIR" INDICATES FEW OR NO CLOUDS BELOW 12000 FEET WITH NO
SIGNIFICANT WEATHER AND/OR OBSTRUCTIONS TO VISIBILITY.

COZ001>005-013-030-031-182200-
...NORTHWEST COLORADO...

CITY           SKY/WX    TMP DP  RH WIND       PRES   REMARKS
CRAIG          FAIR      47  23  38 SW20G29   29.50F
HAYDEN         FAIR      46  21  37 W18G26    29.53F
MEEKER         FAIR      51  20  29 SW26G39   29.53F
RANGELY        FAIR      54  18  24 SW29G37   29.49F
RABBIT EARS PA CLOUDY    30  18  59 SW14G23   29.60F WCI  20
STEAMBOAT SPGS FAIR      48  16  27 SW15G22   29.53F
WALDEN         FAIR      43  14  31 SW25G36   29.55F
$$

COZ006>008-011-182200-
...WEST CENTRAL VALLEYS...

CITY           SKY/WX    TMP DP  RH WIND       PRES   REMARKS
GRAND JUNCTION FAIR     N/A N/A N/A W6        29.57F
MONTROSE       FAIR      57  14  18 SW16G30   29.67F
EAGLE          FAIR      52  18  26 SW26G43   29.57F
RIFLE          FAIR      50  23  34 W21       29.56F
DELTA          FAIR      62  13  14 SW20G33   29.63F
NUCLA          FAIR      55  16  21 SW20G36   29.74F
$$

COZ017>023-064>068-182200-
...SOUTHWEST COLORADO...

CITY           SKY/WX    TMP DP  RH WIND       PRES   REMARKS
DURANGO        FAIR      49  20  31 S12G21    29.83F
CORTEZ         FAIR      54  21  27 S16G24    29.79F
PAGOSA SPRINGS FAIR      45  19  35 S9        29.86F
TELLURIDE      FAIR      43   7  23 SW8       29.81F
WOLF CREEK PAS CLOUDY    21  19  93 S25G37    29.88F WCI   4
$$

COZ009-010-012-014-032>034-037-058>063-182200-
...CENTRAL COLORADO...

CITY           SKY/WX    TMP DP  RH WIND       PRES   REMARKS
ASPEN          FAIR      47  12  24 SW24G32   29.62F
BUENA VISTA    FAIR      52  -1  11 W33G45    29.59F
COPPER MTN     LGT SNOW  32   9  37 SW31G45   29.71F VSB 3/4 WCI  17
BERTHOUD PASS  FAIR      27  14  59 W46G58    29.63F WCI   7
COTTONWOOD PAS FAIR      45   0  15 W33G58    29.62F
GUNNISON       FAIR      49  10  20 SW22G35   29.68F
GRANBY         FAIR      43  18  37 W22G30    29.60F
KREMMLING      FAIR      50  19  29 SW21G29   29.57F
LEADVILLE      FAIR      38   7  27 SW21G28   29.65F
MONARCH PASS   LGT SNOW  30  10  43 W49G60    29.82F WCI  12
SALIDA         FAIR      55   6  13 W16G37    29.70F
SUNLIGHT       FAIR      32  19  59 SW20G36   29.70S WCI  20
WILKERSON PASS FAIR      36  -4  18 SW26G44   29.68F
$$

COZ069>075-182200-
...SAN LUIS VALLEY/SANGRE DE CRISTO MOUNTAINS...

CITY           SKY/WX    TMP DP  RH WIND       PRES   REMARKS
ALAMOSA        FAIR      51   3  14 W22G29    29.73S
DEL NORTE      FAIR      48  14  26 SW38G48   29.72F
LA VETA PASS   FAIR      41  10  28 S20G61    29.78F
SAGUACHE       FAIR      55   3  12 W21G33    29.66F
$$

COZ035-036-038>040-182200-
...NORTHERN COLORADO FRONT RANGE...

CITY           SKY/WX    TMP DP  RH WIND       PRES   REMARKS
DENVER INTL AP FAIR      68   8   9 NW13      29.41F
AURORA         MOSUNNY   67   1   7 SW22G30   29.42F
FRONT RANGE AP PTSUNNY   68   7   9 N8        29.43F
ERIE MUNI ARPT FAIR      67   7   9 W16G22    29.46F
BOULDER MUN AP FAIR      63  14  15 W18G35    29.41F
CENTENNIAL     FAIR      66   7  10 W20G30    29.43F
BROOMFIELD     MOSUNNY   66  10  11 W16G29    29.42F
FORT COLLINS   FAIR      64  13  13 W26G38    29.40F
LONGMONT       FAIR      67  11  11 NW14G32   29.43F
$$

COZ041-046-047-076>085-087-088-182200-
...PIKES PEAK/PALMER DIVIDE AND SOUTHERN FOOTHILLS...

CITY           SKY/WX    TMP DP  RH WIND       PRES   REMARKS
COLO. SPRINGS  FAIR      64   1   8 SW25G33   29.51F
A. F. ACADEMY  FAIR      61  -4   7 SW30G43   29.50F
SCHRIEVER AFB  NOT AVBL
CHEYENNE MTN   FAIR      57   4  12 E12G21    29.45F
ELLICOTT         N/A    N/A N/A N/A SW30G38   29.50F
FALCON         FAIR      60  -3   7 W23G40    29.55F
FORT CARSON    FAIR      64   1   8 SW16G24   29.48F
LIMON          FAIR      68  -2   6 W25G36    29.46F
MONUMENT HILL  FAIR      59   3  10 W35G44    29.53S
CANON CITY     SUNNY     70   7   8 SW32G39   29.49F
WALSENBURG     NOT AVBL
TRINIDAD       FAIR      67   8  10 SW35G43   29.59F
$$

COZ042>045-048>051-090-091-182200-
...NORTHEAST COLORADO...

CITY           SKY/WX    TMP DP  RH WIND       PRES   REMARKS
GREELEY ARPT   FAIR      67  13  12 NW21G28   29.39F
AKRON          FAIR      68  12  11 SW22G31   29.41F
BURLINGTON     FAIR      69  13  11 SW23G33   29.47F
WRAY           FAIR      75   9   7 W8        29.40F
YUMA           NOT AVBL
STERLING       FAIR      70  10  10 W9        29.37F
HOLYOKE        FAIR      73  21  14 E10       29.40F
FORT MORGAN    FAIR      69   8   9 W17G24    29.40F
$$

COZ086-089-092>099-182200-
...SOUTHEAST COLORADO...

CITY           SKY/WX    TMP DP  RH WIND       PRES   REMARKS
PUEBLO         FAIR      70  10  10 VRB3      29.47F
LA JUNTA       FAIR      73   7   7 SW37G49   29.47F
LAMAR          LGT RAIN  71  11  10 W20       29.49F
SPRINGFIELD      N/A     71   8   8 SW25G43   29.54F
$$




USA.gov is the U.S. government's official web portal to all federal, state and local government web resources and services.